Flag for U.S.A. Weather past 2 weeks in Hayward, California, U.S.A.

Now
57 °F

Fog.


Feels Like: 55 °F
Forecast: 52 / 59 °F
Wind: 8 mph from Southeast

Location: Hayward Air Terminal

Current Time: Dec 19, 2014 at 6:39:42 PM

Latest Report: Dec 19, 2014 at 5:54 PM


Visibility: 2 mi

Pressure: 30.16 "Hg

Humidity: N/A

Dew point: N/A

Location of HaywardLocation

Historic Weather in Hayward — Graph

°F

Hayward temperature yesterday

Maximum temperature yesterday: 62 °F (at 1:54 PM)
Minimum temperature yesterday: 53 °F (at 12:54 AM)
Average temperature yesterday: 57 °F

Past Weeks' High & Low Weather Summary

 TemperatureHumidityPressure
High71 °F (Dec 8, 12:54 PM)100% (Dec 4, 8:54 PM)30.25 "Hg (Dec 4, 8:54 PM)
Low48 °F (Dec 13, 1:54 AM)49% (Dec 14, 1:54 PM)29.55 "Hg (Dec 11, 7:54 AM)
Average58 °F81%30.05 "Hg
* Reported Dec 4 4:54 PM — Dec 19 4:54 PM, Hayward, Weather by CustomWeather, © 2014

Note: Actual official high and low records may vary slightly from our data, if they occured in-between our weather recording intervals... More about our weather records

Advertising

Hayward weather history for previous 24 hours

 ConditionsComfort  
Time TempWeatherWind HumidityBarometerVisibility
4:54 PM
Dec 19
57 °FLight rain. Fog.5 mph96%30.16 "Hg2 mi
3:54 PM60 °FLight rain. Mostly cloudy.9 mph78%30.15 "Hg10 mi
2:54 PM60 °FMostly cloudy.12 mph80%30.14 "Hg10 mi
1:54 PM60 °FLight rain. Cloudy.10 mph80%30.14 "Hg10 mi
12:54 PM59 °FLight rain. More clouds than sun.9 mph81%30.15 "Hg9 mi
11:55 AM60 °FCool.12 mph75%30.16 "Hg10 mi
10:54 AM61 °FFog.14 mph67%30.18 "Hg10 mi
9:54 AM59 °FLight rain. Fog.13 mph72%30.19 "Hg5 mi
8:54 AM59 °FMostly cloudy.16 mph69%30.17 "Hg10 mi
7:54 AM58 °FBroken clouds.12 mph72%30.15 "Hg10 mi
6:54 AM59 °FOvercast.13 mph69%30.14 "Hg10 mi
5:54 AM59 °FOvercast.15 mph69%30.14 "Hg10 mi
4:54 AM58 °FMostly cloudy.13 mph75%30.15 "Hg10 mi
3:54 AM59 °FLight rain. Mostly cloudy.12 mph72%30.17 "Hg9 mi
2:54 AM58 °FPassing clouds.13 mph72%30.16 "Hg10 mi
1:54 AM58 °FOvercast.7 mph75%30.18 "Hg10 mi
12:54 AM57 °FMostly cloudy.9 mph78%30.18 "Hg10 mi
11:54 PM
Dec 18
55 °FClear.7 mph83%30.19 "Hg10 mi
10:54 PM56 °FPassing clouds.8 mph81%30.20 "Hg10 mi
9:54 PM56 °FClear.No wind81%30.20 "Hg10 mi
8:54 PM57 °FClear.6 mph78%30.18 "Hg10 mi
7:54 PM57 °FPassing clouds.5 mph81%30.18 "Hg10 mi
6:54 PM58 °FClear.No wind78%30.17 "Hg10 mi
Weather by CustomWeather, © 2014

See weather overviewHow to use our weather pages